Regional Weather Roundup
Issued by NWS Charleston, WV

Home | Current Version | Previous Version | Graphics & Text | Print | Product List | Glossary On
Versions: 1 2 3 4 5 6 7 8 9 10 11 12 13 14 15 16 17 18 19 20 21 22 23 24 25 26 27 28 29 30 31 32 33 34 35 36 37 38 39 40 41 42 43 44 45 46 47 48 49 50
000
ASUS41 KRLX 040910
RWRRLX
West Virginia Regional Weather Roundup
National Weather Service Charleston WV
500 AM EDT TUE AUG 04 2015

Note: "fair" indicates few or no clouds below 12,000 feet with no
significant weather and/or obstructions to visibility.

WVZ003-041000-
Northern Panhandle of West Virginia

CITY           SKY/WX    TMP DP  RH WIND       PRES   REMARKS
WHEELING       CLEAR     64  59  83 SW6       29.93R
$$

WVZ009-041000-
Northwest West Virginia

CITY           SKY/WX    TMP DP  RH WIND       PRES   REMARKS
PARKERSBURG    CLOUDY    71  65  81 CALM      29.97R
$$

WVZ006-041000-
Western West Virginia

CITY           SKY/WX    TMP DP  RH WIND       PRES   REMARKS
HUNTINGTON     PTCLDY    64  63  96 CALM      29.95R
$$

WVZ015-041000-
West Central West Virginia

CITY           SKY/WX    TMP DP  RH WIND       PRES   REMARKS
CHARLESTON     CLEAR     66  61  84 S5        29.96R
$$

WVZ022-031-041000-
North Central West Virginia

CITY           SKY/WX    TMP DP  RH WIND       PRES   REMARKS
CLARKSBURG     CLOUDY    72  67  84 W6        29.95R
MORGANTOWN     CLOUDY    70  65  84 CALM      29.96R
$$

WVZ025-035-042-045-041000-
Southern West Virginia

CITY           SKY/WX    TMP DP  RH WIND       PRES   REMARKS
BECKLEY        PTCLDY    63  58  83 W5        30.04R
LOGAN            N/A     64  63  94 CALM      29.96S
BLUEFIELD      MOCLDY    65  59  81 W6        30.07R
LEWISBURG      CLEAR     64  57  76 CALM      30.03R
$$

WVZ047-041000-
Northern Mountains of West Virginia

CITY           SKY/WX    TMP DP  RH WIND       PRES   REMARKS
ELKINS         PTCLDY    71  61  70 W6        30.00R
$$

WVZ052-041000-
Eastern Panhandle of West Virginia

CITY           SKY/WX    TMP DP  RH WIND       PRES   REMARKS
MARTINSBURG    CLOUDY    68  66  93 NE6       29.89F
PETERSBURG     CLEAR     66  64  94 CALM      29.93S FOG
$$


USA.gov is the U.S. government's official web portal to all federal, state and local government web resources and services.